Theta_e
304 303 304 307 310 312 312 313 317 322 322 323 324 326 327 326 327 327 327 327 328 329 329 330 331 330 330 331 331 330 331 331 331 332 335 337 339 338 339 339 340 340 340 341 342 342 342 342 341 340 341 340 340 340 338 340 341 339 339 338 337 337 337 336 337 336 338 336 335 337 338 338 336 337 338 337 337 336 334 334 334 335 337 337 337
303 304 305 305 310 310 311 312 318 321 321 322 323 324 325 325 326 326 326 326 327 326 327 328 329 330 330 330 331 331 330 330 330 330 331 334 338 339 339 338 339 339 340 341 343 342 341 342 341 340 341 341 340 339 338 340 342 339 339 339 338 337 335 337 335 336 334 333 333 334 336 336 337 337 336 336 335 334 335 332 331 334 334 336 335
305 306 304 304 309 309 310 313 320 319 320 321 322 322 322 323 325 325 324 324 326 324 325 326 328 329 330 329 330 330 330 329 329 329 329 330 335 338 339 338 338 338 338 341 343 344 343 341 341 341 340 340 340 341 340 338 339 339 340 339 338 337 335 335 336 335 334 333 333 334 334 334 334 337 336 336 334 333 333 331 331 332 332 333 333
305 304 303 304 307 307 308 314 319 318 319 320 321 321 320 321 322 324 325 323 325 324 324 325 326 327 328 329 329 329 329 330 330 329 330 330 332 333 337 338 338 339 340 340 341 341 343 342 342 342 341 340 339 341 341 338 338 339 341 339 338 335 335 334 335 334 335 335 335 335 332 332 332 335 336 338 335 334 332 330 328 328 334 333 333
303 304 303 302 302 305 308 315 317 317 318 318 319 319 319 320 321 321 323 324 324 324 325 326 327 327 327 327 328 329 328 329 330 329 330 330 329 330 333 337 338 339 338 340 339 339 340 341 343 343 341 342 339 340 341 339 338 340 340 340 337 335 334 333 333 333 334 338 335 336 332 332 332 332 335 337 336 334 332 330 329 330 335 334 335
303 303 303 301 301 302 308 315 315 316 317 318 318 318 318 319 319 320 321 321 322 323 324 325 325 326 325 325 326 327 328 328 328 329 330 330 330 330 332 333 336 337 338 339 340 338 340 340 342 341 342 341 340 339 341 339 341 340 340 339 337 336 335 334 332 335 337 337 334 330 332 333 332 330 335 337 336 333 332 332 332 335 336 335 334
303 304 303 302 301 302 309 314 314 315 316 317 317 317 318 318 317 318 319 321 322 323 323 323 323 324 324 325 325 326 327 328 328 329 329 330 330 329 329 330 332 333 335 337 339 339 338 339 341 341 341 341 341 340 340 339 340 340 340 339 337 336 334 333 335 338 338 334 329 331 332 332 332 335 337 338 337 334 333 334 336 334 335 334 331
303 305 303 301 301 303 310 313 314 315 316 316 316 316 317 317 316 317 318 319 320 321 322 322 323 324 324 325 325 326 326 326 327 327 328 328 329 329 328 329 330 331 333 335 337 339 338 339 338 338 339 341 341 339 339 340 339 340 340 339 338 335 334 334 337 337 336 330 332 333 332 330 334 337 339 338 337 336 336 336 337 335 331 329 326
302 302 302 301 302 305 309 312 313 314 315 316 315 315 315 315 315 316 317 318 318 319 320 320 321 322 324 324 324 324 324 325 325 325 326 327 327 327 328 329 329 330 332 333 334 336 338 338 337 339 340 340 342 341 339 340 338 340 340 340 338 336 334 334 336 335 333 332 331 330 330 330 332 336 338 337 337 337 338 336 338 336 329 328 328
302 302 302 301 302 306 308 311 312 313 314 315 314 314 314 314 315 315 316 316 317 317 318 320 320 321 322 323 323 323 323 323 323 324 325 325 326 326 326 327 328 328 328 330 332 334 335 337 338 338 337 337 339 340 339 339 338 339 340 340 339 336 335 334 337 333 329 330 329 328 328 334 331 331 337 336 335 336 338 336 337 335 332 329 328
302 302 302 302 303 305 307 309 310 311 313 313 312 313 313 314 314 314 315 316 317 316 318 319 320 321 321 322 321 322 321 321 321 322 324 324 326 326 325 325 326 327 328 328 329 331 332 335 336 337 338 338 340 340 339 339 339 338 338 339 339 337 335 336 336 330 330 329 327 326 329 329 329 330 337 333 334 328 328 333 333 331 330 329 327
302 302 302 302 304 305 306 308 309 310 312 311 311 312 312 313 313 314 315 315 315 316 317 319 320 320 320 320 320 320 320 320 320 320 322 323 324 325 324 325 324 325 326 326 327 328 330 332 334 336 337 338 338 339 340 339 339 338 338 338 337 338 336 337 330 331 330 328 326 327 326 324 325 329 331 329 326 328 333 331 332 330 329 330 328
303 302 302 303 304 304 305 307 307 308 310 310 310 310 311 312 313 314 314 314 314 315 316 318 319 319 319 319 319 319 319 318 318 319 320 321 322 323 323 323 323 324 325 325 325 326 328 329 332 334 336 337 336 338 338 339 339 339 336 338 338 339 336 337 331 333 330 329 327 328 327 327 327 327 329 329 328 329 332 332 331 332 331 330 328
302 302 303 303 304 303 304 305 306 307 308 308 309 310 310 311 311 312 313 312 313 314 316 317 317 318 317 317 318 318 317 317 317 317 317 318 319 320 321 321 321 322 322 323 323 325 325 327 330 333 335 337 337 338 337 339 338 338 337 337 338 337 335 336 332 333 331 329 329 327 328 328 329 328 328 329 331 329 330 331 332 333 332 331 329
301 304 305 304 303 303 304 304 305 306 306 306 307 308 309 310 310 311 311 312 312 313 314 315 316 316 316 316 316 317 317 316 316 314 314 315 316 317 317 318 319 319 321 321 322 322 324 325 328 332 334 335 336 336 338 339 338 337 336 337 337 336 334 334 332 332 331 330 329 329 329 329 328 328 329 330 332 331 331 331 332 334 334 333 330
305 305 305 304 304 303 303 303 303 305 305 304 305 306 307 309 309 310 310 310 310 311 312 314 314 314 314 314 314 315 316 316 314 313 313 313 313 314 314 315 316 317 319 320 320 321 322 324 327 329 331 334 335 336 337 338 338 336 336 336 336 334 333 331 332 332 331 330 330 330 329 329 329 330 331 331 332 333 332 335 333 334 334 333 333
307 306 304 304 305 303 302 302 303 304 303 303 304 304 306 307 308 308 308 309 309 310 310 311 312 311 312 312 312 313 314 314 312 311 311 312 312 312 313 315 316 317 318 319 320 320 321 322 325 327 329 332 334 334 335 337 336 335 335 335 334 333 332 331 331 331 330 330 329 329 329 330 330 332 331 331 333 334 334 334 334 334 334 334 334
308 305 303 302 303 303 302 303 302 302 302 302 302 303 304 305 307 306 306 307 307 308 308 309 309 310 310 310 311 311 311 311 311 310 310 310 310 310 312 314 315 315 316 317 318 319 320 321 323 324 327 330 333 334 335 336 336 336 335 334 332 331 330 329 330 331 330 330 330 330 330 329 330 332 332 332 333 333 334 335 334 333 334 334 335
306 304 303 303 302 303 303 303 303 302 302 302 302 302 303 304 305 304 305 305 305 306 306 306 307 307 307 308 309 309 308 308 308 309 309 308 310 311 311 311 313 314 315 316 317 318 319 320 321 322 325 329 332 333 334 334 335 335 334 333 331 329 327 329 331 329 328 328 328 329 329 330 333 333 332 332 333 333 333 334 334 334 334 334 333
306 305 303 304 303 303 303 302 303 302 302 302 302 302 302 303 304 303 303 303 304 304 304 304 305 305 305 305 306 305 307 306 307 306 307 308 308 308 310 310 312 313 314 315 315 316 317 318 319 321 324 327 331 333 333 333 334 334 332 332 329 327 330 331 330 328 327 326 327 328 330 334 334 334 333 332 333 333 333 333 332 332 332 333 336
305 305 304 302 303 303 303 302 303 303 302 302 302 303 303 303 302 302 302 302 302 303 303 303 304 304 303 304 304 303 306 305 305 305 306 305 307 308 309 310 310 311 312 313 314 315 316 317 318 320 323 326 329 331 332 332 334 333 331 329 327 332 333 331 329 327 326 326 327 329 333 334 334 334 332 332 333 333 333 332 332 332 332 332 336
303 304 304 303 302 302 302 302 302 302 302 302 303 303 303 301 301 301 301 301 301 302 303 302 303 302 303 302 302 303 304 304 304 305 304 305 306 307 308 308 310 310 311 312 313 314 315 316 317 319 322 325 327 332 334 332 332 332 329 326 333 334 333 329 327 326 327 327 328 330 329 333 334 334 333 332 332 332 332 332 332 332 332 333 335
302 302 303 303 303 302 302 302 303 303 302 302 302 303 302 301 300 300 301 301 301 301 301 302 302 301 302 301 302 304 303 303 303 305 305 306 305 306 307 308 309 310 310 311 312 312 313 314 316 318 320 323 325 331 334 336 334 330 328 330 333 331 330 330 329 329 328 328 328 328 330 330 332 334 333 332 333 333 333 334 336 336 335 333 334
302 302 302 305 304 302 302 302 303 303 302 301 302 301 301 300 300 300 300 300 300 300 301 302 302 301 301 301 301 306 304 303 305 305 306 305 305 306 306 307 308 308 309 310 310 311 312 313 315 316 318 321 326 331 333 335 333 332 332 334 329 327 328 328 327 327 328 328 329 330 333 331 331 331 332 332 333 333 332 334 334 334 335 334 333
302 302 304 305 303 303 301 302 302 303 302 301 301 300 300 299 299 299 300 299 300 299 300 301 302 301 302 301 301 302 303 303 304 304 304 304 304 304 305 306 308 308 309 311 312 314 314 315 315 317 320 322 328 332 333 333 332 331 330 329 327 328 330 329 327 326 327 329 331 330 330 330 331 331 332 332 332 332 331 332 333 334 333 333 334
304 302 302 303 303 303 303 301 302 303 303 301 301 301 300 298 299 299 298 299 300 299 299 300 301 301 301 301 301 302 302 302 303 305 305 304 304 305 306 307 308 308 311 312 314 315 318 316 315 317 321 327 330 333 334 333 331 331 330 328 327 327 325 323 324 327 327 327 327 326 329 329 330 330 332 332 332 332 331 332 333 334 334 333 333
302 301 303 303 304 304 303 302 302 302 303 303 302 301 300 299 299 298 299 297 299 299 298 299 300 301 301 301 301 302 303 303 303 304 305 306 307 308 307 309 309 309 311 312 315 318 318 317 316 318 322 329 331 332 333 332 331 331 328 327 325 325 323 322 323 324 321 321 321 322 328 330 328 329 330 330 332 332 332 332 332 333 333 333 334
302 302 303 303 304 303 303 303 302 302 302 302 302 300 300 299 299 299 298 297 298 297 297 298 300 301 302 301 300 302 302 304 303 304 305 307 308 310 312 311 310 312 314 316 318 318 318 318 317 319 322 328 331 331 332 331 329 330 327 326 325 324 323 323 322 319 318 318 319 319 323 326 329 329 330 332 332 332 332 332 332 331 332 332 332
301 302 303 303 304 305 303 303 303 302 302 302 301 301 301 300 299 299 297 298 298 297 297 298 299 301 303 301 301 300 302 305 303 304 306 307 308 309 311 312 313 314 315 315 317 318 319 319 320 322 327 327 327 324 323 321 321 322 324 324 324 323 321 320 318 317 315 315 316 315 317 321 323 326 327 328 329 330 331 331 331 331 332 333 332
302 303 303 303 304 305 303 303 303 302 302 302 301 301 300 299 299 299 298 298 297 298 299 297 297 300 302 302 301 301 302 304 305 305 306 306 307 308 309 310 312 315 317 316 317 317 318 322 323 324 324 322 320 319 321 318 317 317 318 316 316 317 315 314 313 312 311 311 313 313 313 316 318 321 324 325 327 328 329 329 330 331 332 333 333
303 303 303 303 304 304 304 304 303 303 303 302 301 301 301 300 299 299 298 298 298 298 298 297 297 299 301 302 303 302 302 304 305 307 307 307 307 307 307 309 309 311 313 315 316 315 316 316 315 316 316 314 313 314 314 313 312 312 312 312 312 312 311 311 310 309 310 311 311 311 311 312 314 316 319 321 324 325 326 327 329 331 332 333 334
302 302 303 304 304 304 304 305 304 303 303 302 302 302 301 300 300 299 298 298 299 297 297 297 296 297 300 302 304 304 303 304 306 310 308 307 306 307 307 307 308 309 311 313 313 314 313 312 311 312 312 312 310 310 310 309 308 308 308 307 307 307 308 307 308 309 309 309 309 308 309 308 310 311 313 315 318 322 324 326 328 329 332 332 333
303 303 303 304 304 304 304 304 305 304 304 302 302 302 301 301 300 299 298 299 298 297 297 296 296 297 299 302 303 305 305 304 306 310 310 308 307 307 306 306 306 307 310 311 311 311 311 310 311 310 310 310 308 307 307 306 305 304 305 306 307 307 307 306 306 305 306 306 306 306 307 308 308 309 310 311 313 317 321 324 326 328 330 332 332
302 303 304 304 305 307 306 305 305 305 304 303 302 301 301 301 300 299 298 298 297 296 297 296 296 296 298 301 303 305 305 305 306 309 310 310 310 308 306 305 306 307 307 307 307 307 307 307 307 306 306 306 305 306 306 304 304 303 303 303 303 304 304 304 304 303 303 303 304 305 306 306 307 308 309 310 311 313 317 321 324 326 328 331 330
302 303 303 303 304 304 306 305 305 305 304 304 303 303 302 301 300 299 299 298 297 297 297 297 296 296 296 299 302 304 304 305 306 308 310 310 309 308 307 306 306 307 306 306 306 306 305 304 306 305 305 304 304 304 304 303 302 301 301 302 301 302 302 302 302 302 302 303 304 305 305 305 305 305 306 310 310 311 311 315 320 323 325 327 329
302 303 303 304 303 304 306 305 306 305 305 304 304 302 302 301 300 301 299 299 297 297 297 296 296 296 296 298 300 303 304 305 306 308 310 309 309 308 307 307 307 306 305 305 305 304 304 303 303 304 303 303 304 302 303 301 302 301 302 302 302 302 302 302 302 302 303 304 304 304 304 303 303 303 303 308 309 310 310 311 314 318 319 321 327
303 302 302 303 304 305 306 305 304 305 305 305 304 304 303 302 301 300 300 299 298 297 296 296 297 296 296 296 298 302 304 304 305 307 309 309 308 308 308 308 309 308 306 305 305 304 303 303 302 304 304 303 302 301 301 302 301 301 301 301 301 301 301 301 301 302 303 302 302 302 303 303 302 302 305 305 307 309 308 308 310 311 312 314 320
303 303 303 303 302 303 304 304 305 305 305 304 303 303 302 302 301 301 300 299 299 298 297 297 296 296 296 295 297 300 302 303 304 305 308 309 309 308 308 309 309 309 308 307 305 304 304 303 301 301 303 303 302 301 300 301 300 299 299 299 300 300 300 300 300 300 301 301 300 301 301 301 301 302 303 305 306 307 308 308 308 309 309 310 314
302 302 303 302 302 303 304 304 304 304 304 304 304 304 304 304 303 302 302 301 301 299 298 296 297 297 296 296 297 298 299 303 303 304 306 308 309 308 308 309 310 309 309 308 307 305 304 304 303 302 303 303 302 302 301 301 301 300 299 298 299 299 299 300 300 300 300 300 301 301 301 300 300 302 303 304 304 305 306 308 310 311 310 308 311
301 302 302 303 303 303 304 303 304 303 303 303 304 302 302 302 301 302 302 301 301 300 299 297 297 297 296 296 296 297 297 300 303 303 305 306 308 308 308 309 309 310 309 308 307 306 306 305 304 304 304 305 305 304 303 303 302 301 299 299 299 299 299 299 299 299 299 298 300 300 300 299 300 301 302 303 304 305 305 306 307 309 310 309 308
302 302 302 303 303 302 303 302 304 304 301 301 302 301 300 300 300 301 300 300 300 300 300 299 298 297 297 297 297 295 297 298 300 303 303 304 306 308 309 308 308 308 307 306 307 306 306 306 306 306 307 305 304 305 305 307 305 303 303 301 300 300 301 301 301 302 302 302 301 301 300 300 299 298 298 300 301 302 302 304 306 307 308 310 310
303 302 302 302 302 302 301 302 304 303 302 301 301 301 301 300 298 298 299 299 300 299 299 299 298 298 298 297 297 296 297 298 298 300 302 303 305 306 307 307 308 307 307 307 306 306 307 307 308 307 307 307 305 305 306 307 308 307 305 305 304 303 303 303 303 302 303 304 303 303 302 301 300 298 298 298 299 300 300 301 304 304 306 307 308
301 301 302 302 302 303 303 303 303 303 303 303 302 301 302 302 299 299 299 299 300 300 298 298 299 298 298 298 297 297 296 296 297 298 300 301 302 304 305 306 307 308 308 308 308 307 307 307 308 308 306 306 306 306 306 307 307 307 308 307 306 306 304 304 304 303 302 303 304 304 303 301 299 298 297 298 299 299 299 300 300 301 303 304 306
302 303 302 302 303 302 303 303 303 303 303 303 302 303 303 302 302 301 300 300 299 299 300 300 300 299 300 300 300 297 296 296 297 298 298 299 300 301 304 305 306 307 308 308 308 307 307 307 308 307 309 307 307 306 306 307 308 308 306 307 307 307 305 306 306 305 303 302 303 303 303 302 301 299 298 298 298 298 298 298 299 301 302 303 304
305 305 305 303 302 302 303 302 302 302 303 302 303 303 302 302 302 302 301 299 300 299 301 301 300 300 300 300 299 298 296 296 296 297 297 298 298 299 301 303 304 305 307 307 307 307 307 307 307 308 308 308 307 307 306 306 307 306 307 306 305 305 306 305 305 304 302 301 302 302 302 302 302 301 300 299 299 299 300 300 301 302 303 304 305
304 305 304 302 301 301 302 301 301 301 302 303 303 302 301 301 301 300 299 299 299 299 299 298 299 299 299 299 300 299 297 296 296 296 297 297 297 297 298 300 301 302 304 305 305 306 306 306 307 307 307 307 308 307 306 305 306 306 306 307 305 304 305 305 304 303 302 304 303 301 301 301 302 302 301 301 301 302 302 302 302 303 303 304 304
304 304 303 301 300 301 301 301 301 302 303 302 302 301 301 301 301 301 300 299 298 300 300 300 299 299 300 300 300 299 298 296 296 296 296 296 297 297 297 297 298 300 301 302 302 304 304 304 305 306 307 307 307 307 307 306 306 305 306 306 306 306 306 305 304 305 303 302 302 301 300 301 301 300 300 301 302 302 302 302 302 302 303 303 303
302 302 302 302 301 301 301 301 301 301 303 302 302 301 301 302 302 301 300 299 299 299 300 300 300 299 299 300 300 299 299 297 296 297 296 296 296 296 297 297 297 297 297 298 299 300 301 302 303 304 305 306 307 306 307 307 306 305 305 305 304 304 304 304 304 303 303 302 303 303 302 301 299 299 300 300 300 300 300 301 301 301 301 301 301
301 301 301 302 301 301 301 301 300 301 302 302 302 302 301 302 302 301 300 300 301 300 300 300 299 300 299 300 300 300 300 298 297 297 297 296 296 296 296 296 295 296 295 296 297 298 299 300 301 301 303 304 305 306 305 306 306 305 304 303 304 304 303 303 303 303 302 300 300 302 303 300 300 300 300 299 300 300 299 299 299 299 299 300 300
302 301 300 300 300 300 300 300 301 302 303 301 301 302 302 302 301 301 300 301 301 300 300 299 299 300 299 300 301 300 300 299 298 297 297 296 296 296 296 295 295 295 295 295 296 296 297 298 299 299 300 301 302 304 304 305 306 306 305 305 303 302 302 302 302 302 302 302 298 299 301 300 298 302 300 300 299 298 298 298 298 297 297 298 298
302 300 301 301 301 300 300 300 302 303 302 301 301 301 302 301 301 302 301 301 301 300 299 299 300 300 299 300 301 301 300 299 299 298 298 298 297 296 296 296 296 295 295 296 295 294 295 295 296 296 297 297 298 300 301 303 303 303 303 302 301 302 301 301 301 301 301 300 299 298 299 300 299 298 301 298 297 297 297 296 296 297 297 297 298
Wind_Speed
10 14 12 12 15 17 18 19 18 18 19 18 20 20 21 21 21 21 21 21 22 23 23 23 23 23 24 23 23 22 22 21 18 18 18 19 20 18 16 14 13 12 14 15 15 14 13 12 12 11 12 11 9 11 8 9 9 8 6 5 3 4 4 2 5 3 3 3 5 7 8 8 8 7 8 7 7 6 5 3 3 5 3 7 10
13 11 9 10 16 17 18 18 18 18 18 18 19 19 20 20 20 21 21 21 21 21 22 23 23 22 22 23 23 23 22 21 20 17 18 18 19 19 17 15 14 14 13 13 15 15 17 14 13 12 13 12 11 11 10 10 12 9 8 8 7 7 5 6 3 6 3 4 6 7 4 7 9 9 8 7 7 7 4 3 3 2 3 9 7
9 10 9 10 14 16 17 17 18 18 18 18 18 18 18 19 19 19 20 21 21 21 21 22 22 23 23 22 22 24 23 21 21 21 17 18 19 18 18 17 15 14 11 13 15 15 16 17 13 14 14 13 13 13 12 11 12 10 11 10 9 10 7 4 5 6 6 7 7 8 7 8 9 8 8 9 9 7 5 4 1 8 4 6 7
10 10 10 11 13 14 17 17 18 18 18 17 17 18 18 18 18 19 19 20 21 20 20 21 22 22 25 25 23 23 23 23 21 20 21 18 19 18 18 18 18 15 15 14 14 15 16 17 17 15 15 14 13 14 13 11 11 10 11 11 10 9 9 7 7 6 7 7 6 4 6 7 8 10 10 10 9 8 6 6 3 5 7 7 6
10 9 9 10 11 13 16 17 18 18 18 18 17 17 18 18 18 18 19 19 19 20 20 21 21 22 22 25 25 23 23 22 22 21 20 20 18 18 18 18 18 18 18 17 15 14 16 18 16 16 14 14 13 13 14 11 12 10 12 12 11 10 9 8 8 8 6 6 5 6 6 7 7 7 10 10 10 9 6 5 6 5 8 7 6
10 8 9 9 10 11 16 17 17 17 18 18 18 18 18 18 18 18 18 18 19 20 20 20 20 21 22 22 24 25 23 23 22 22 21 20 20 18 17 18 18 18 17 19 18 15 11 18 19 17 16 13 13 12 13 12 14 12 12 12 13 11 9 8 10 8 8 7 6 8 6 4 5 6 10 11 10 8 7 6 7 7 8 8 8
8 6 7 9 8 10 16 16 17 17 18 18 18 19 19 18 18 18 18 18 19 19 20 21 22 22 23 23 22 22 24 23 23 22 21 21 20 18 18 18 19 18 17 16 18 18 13 14 18 16 16 14 14 16 9 13 13 14 13 13 12 11 11 10 10 9 10 8 8 7 5 5 6 4 13 11 10 10 8 8 8 9 10 9 8
7 5 7 7 8 11 16 17 17 17 18 18 18 18 19 19 19 19 19 19 19 19 20 22 22 22 23 23 24 23 23 24 23 23 23 22 20 19 18 18 18 18 17 16 16 19 18 15 11 15 17 15 14 15 16 16 15 15 15 15 14 13 12 12 10 10 11 9 7 6 5 6 6 5 12 12 11 11 9 8 7 9 8 6 1
7 7 7 8 7 13 16 16 17 18 18 18 18 18 18 19 19 19 19 20 20 20 20 21 22 22 22 23 22 22 22 23 23 22 23 23 22 20 20 19 17 18 16 16 16 18 20 18 9 14 21 17 14 13 14 15 17 16 16 16 15 14 13 13 11 9 9 7 7 6 5 6 7 6 11 12 12 11 11 9 9 10 6 7 6
7 6 6 6 7 13 15 16 16 17 17 17 18 18 19 19 19 19 20 20 20 20 20 21 22 22 23 24 24 23 22 22 22 22 20 22 21 20 19 19 18 17 18 16 16 17 17 19 17 16 12 16 16 16 14 17 18 16 16 17 16 14 13 13 11 11 9 7 8 6 5 0 6 5 11 10 10 11 12 10 0 4 7 7 7
7 6 6 6 8 13 14 15 16 16 16 17 18 18 19 19 19 19 20 20 21 21 21 22 22 23 22 24 24 23 24 22 22 21 21 20 20 20 19 19 19 18 17 17 17 18 17 17 18 17 14 17 20 17 15 15 16 17 17 16 17 15 12 12 11 9 8 8 7 6 6 3 3 6 13 7 12 8 5 2 2 4 10 8 8
7 6 6 6 8 10 13 14 14 15 16 17 17 18 18 19 19 19 20 20 20 21 21 21 22 22 22 21 22 24 23 23 22 20 20 19 20 19 19 17 18 19 19 17 16 18 19 17 17 18 18 14 19 18 16 17 21 18 17 16 13 15 13 12 11 8 8 8 8 6 7 8 6 6 7 6 5 8 8 7 4 6 7 8 9
7 6 6 6 7 9 12 13 14 15 15 16 17 17 18 18 18 19 19 20 20 20 20 21 21 21 20 21 22 21 22 21 20 20 19 18 18 18 18 18 18 19 19 17 17 17 18 18 18 19 17 17 14 20 18 16 18 17 16 16 13 14 13 15 11 8 8 8 7 6 7 6 5 5 8 8 8 9 11 9 10 9 8 8 9
6 6 5 6 6 8 10 12 13 14 15 16 17 17 17 17 18 18 19 20 20 20 20 21 20 21 20 20 21 21 19 19 20 19 18 17 16 16 17 17 17 18 18 19 18 17 17 17 17 19 17 17 14 19 19 18 18 19 16 16 13 12 14 14 11 8 9 9 7 8 7 5 5 7 7 9 9 10 10 9 9 10 10 9 9
6 6 6 6 6 7 9 9 12 13 14 15 15 16 16 17 17 17 18 19 20 20 19 19 20 20 20 20 19 20 17 18 19 17 17 16 16 15 15 16 16 17 17 17 18 18 15 15 16 17 16 15 15 8 22 17 15 17 11 11 11 11 14 11 10 8 8 8 7 7 6 6 6 8 9 11 11 10 11 10 10 10 11 11 10
4 5 6 5 6 6 6 7 10 12 13 13 14 15 16 16 16 17 18 19 19 19 19 18 19 21 20 20 19 19 20 17 16 16 15 14 14 14 14 15 16 16 16 17 17 16 15 14 16 16 17 15 13 12 15 21 20 17 12 9 10 9 13 12 9 8 7 8 7 7 7 7 8 9 11 11 12 12 8 6 10 12 12 12 12
3 3 5 6 7 6 6 6 8 11 10 11 12 13 14 15 15 16 17 18 19 19 18 18 18 19 21 20 19 18 17 16 14 14 14 15 15 15 14 16 16 15 14 15 14 14 14 14 15 16 17 16 15 12 11 22 17 16 13 13 9 8 11 11 8 8 7 8 7 7 7 7 9 11 12 12 12 11 10 9 10 9 10 11 11
1 2 4 5 6 6 6 6 7 7 7 8 9 10 13 14 14 15 16 17 18 18 18 17 16 18 20 21 19 18 17 15 15 13 14 14 14 14 15 15 15 14 14 14 13 12 13 13 14 16 17 17 16 12 13 10 17 18 18 16 16 11 10 8 7 7 7 6 7 6 6 8 8 10 12 12 12 10 10 9 11 11 10 11 10
2 3 4 4 6 6 6 6 6 6 7 6 6 8 12 13 14 13 14 15 16 17 18 17 16 16 18 20 18 18 15 14 13 14 12 13 15 15 14 14 14 15 15 14 13 12 12 13 13 14 16 16 13 11 8 10 16 13 14 13 17 13 11 7 7 6 5 4 6 6 6 6 9 10 12 12 11 11 10 11 12 13 12 12 12
1 2 4 3 4 6 6 6 6 7 6 7 7 8 9 12 12 11 13 14 14 16 16 15 15 14 16 19 17 13 14 13 16 12 13 15 14 13 15 16 16 14 15 14 13 13 12 13 14 14 15 15 14 11 5 6 12 13 14 9 11 13 7 5 4 4 3 4 5 5 5 6 9 10 12 11 11 11 10 10 11 10 11 11 12
4 3 3 4 5 6 7 6 6 8 8 7 6 7 7 11 9 11 12 12 12 15 14 14 13 11 13 16 14 10 12 11 11 11 14 11 14 15 16 16 15 14 14 14 13 12 12 12 13 13 14 15 14 11 4 5 8 15 12 9 12 8 5 5 5 4 4 4 3 4 1 6 9 11 12 11 11 10 10 10 11 11 11 8 10
6 5 4 4 5 5 7 7 7 8 9 6 5 5 7 9 9 8 8 9 10 12 10 10 11 10 12 11 9 9 10 10 10 11 10 12 13 16 15 15 15 14 13 13 13 12 11 12 12 13 13 14 15 7 3 3 7 14 11 13 8 6 4 5 3 2 2 1 1 1 3 4 7 10 11 11 10 10 10 9 10 11 11 11 10
7 6 6 6 4 5 6 7 7 8 8 8 6 6 7 7 8 8 7 8 9 10 9 9 8 10 10 9 9 9 10 9 8 10 11 13 12 13 14 14 14 12 12 11 11 10 10 11 12 13 13 14 10 6 3 2 5 15 12 10 7 5 5 5 5 4 1 1 1 1 3 4 5 8 11 11 10 9 6 11 11 10 12 11 10
7 7 7 4 4 4 6 6 7 8 7 6 6 6 7 7 7 7 7 7 7 7 8 8 7 8 9 7 7 10 10 9 10 13 12 9 9 12 13 12 10 9 9 8 8 7 8 9 10 12 11 9 7 8 6 4 6 7 8 7 6 8 8 7 5 4 2 1 1 2 3 2 3 5 8 10 10 10 4 10 12 11 12 13 13
6 6 6 5 6 5 6 6 6 6 7 6 6 6 7 6 6 7 7 7 7 7 7 7 7 9 9 7 7 8 8 9 9 8 8 8 8 8 8 7 5 5 6 5 3 2 3 3 4 6 6 8 8 7 6 7 8 8 8 8 8 8 5 6 5 4 3 4 1 2 1 1 2 3 5 8 10 6 5 5 9 10 9 14 13
4 6 8 7 6 5 5 5 6 6 6 6 6 6 6 6 7 7 8 7 7 7 7 7 7 8 8 8 7 6 7 8 8 8 8 8 9 8 7 6 6 5 4 3 2 1 1 2 4 5 6 7 7 7 7 7 8 9 9 9 8 9 7 6 5 4 4 4 2 3 3 1 1 2 3 3 5 6 5 7 8 9 11 12 13
6 7 7 6 5 5 5 5 5 6 7 6 5 5 5 5 6 6 7 7 7 7 7 7 7 8 9 9 8 7 8 6 8 9 9 8 8 6 7 6 5 4 3 2 1 1 2 3 4 5 6 6 6 6 7 9 5 8 8 9 8 8 8 8 7 4 3 3 4 7 5 3 4 2 1 2 4 5 6 7 9 10 12 13 14
6 8 7 6 6 6 5 5 5 5 6 6 6 5 4 5 5 6 5 7 7 7 7 7 8 7 7 8 8 6 7 9 9 8 9 8 9 9 6 4 3 3 3 3 3 4 3 3 6 5 7 5 5 4 5 8 8 8 9 9 10 8 7 6 7 6 4 4 4 7 8 9 9 5 4 4 4 5 6 8 9 11 12 13 14
7 8 7 7 6 4 4 5 5 5 5 5 5 5 4 5 5 5 6 7 6 7 7 7 7 7 7 8 8 7 6 8 8 8 9 8 8 8 7 7 5 4 3 4 5 5 5 4 5 6 2 4 4 5 5 5 5 5 6 7 7 7 8 7 6 5 5 4 4 6 10 10 9 8 7 7 6 6 8 9 11 13 14 16 16
6 7 7 6 6 5 5 5 5 4 5 5 5 5 5 5 5 5 5 6 6 7 8 6 7 7 7 8 8 8 7 6 8 7 8 9 8 8 8 8 7 7 7 6 6 5 5 4 4 4 5 6 6 5 5 6 6 5 5 6 5 7 7 7 6 4 4 4 4 4 8 8 9 8 7 6 6 7 7 9 10 12 14 16 17
6 7 7 6 5 6 6 5 4 4 4 5 5 5 5 5 5 5 5 5 7 7 6 6 6 6 7 8 8 8 7 7 7 8 8 8 9 9 9 8 8 8 8 7 6 6 6 6 6 6 7 7 6 6 6 7 7 7 8 8 5 5 8 7 5 4 5 4 3 3 4 7 7 8 8 7 8 8 8 9 10 12 14 16 17
7 7 6 6 6 7 7 5 4 4 4 5 5 5 5 5 5 4 5 5 6 6 6 6 6 6 7 8 7 7 7 7 7 9 8 9 9 9 9 10 9 8 9 8 7 7 7 7 9 8 8 7 7 7 7 7 8 7 7 9 8 7 7 6 6 5 5 4 3 4 3 4 8 9 9 9 9 9 8 8 9 11 12 14 15
6 6 6 6 8 7 6 7 4 4 4 5 5 5 4 4 4 4 4 5 5 5 6 6 7 6 6 8 7 8 7 7 7 8 9 9 9 10 10 10 10 8 7 9 9 7 6 6 7 8 8 8 8 8 8 8 8 7 7 8 6 7 7 7 6 6 5 4 4 4 3 4 4 7 9 10 10 9 9 8 9 10 12 12 14
6 5 5 7 5 3 3 4 4 5 4 4 4 4 4 4 4 4 3 4 4 5 6 6 7 6 7 7 8 8 7 6 7 7 7 6 9 10 9 9 9 10 8 8 8 7 6 8 9 8 8 8 8 8 8 8 7 7 7 6 6 6 6 7 6 5 5 4 3 4 4 4 4 4 5 7 9 10 12 11 10 9 10 13 12
5 6 7 8 7 6 3 3 4 5 4 4 4 4 4 4 4 4 4 4 4 4 5 6 6 6 6 6 8 8 8 8 7 7 7 7 6 6 8 8 6 7 8 7 6 6 7 8 7 8 7 8 8 8 7 7 6 7 7 6 7 6 6 6 5 5 4 3 3 4 4 3 4 4 4 3 5 8 11 12 12 12 12 13 11
6 6 6 6 7 7 4 5 6 6 5 4 4 4 4 4 4 3 4 3 4 4 5 5 6 6 6 6 8 7 8 9 8 7 6 7 7 7 6 5 6 5 6 6 9 9 7 7 7 6 7 8 7 7 7 7 7 7 7 7 6 6 6 5 5 4 4 3 3 3 3 3 4 4 4 3 3 4 9 11 12 13 14 14 14
6 6 6 6 7 8 5 6 8 8 7 5 4 4 4 4 4 3 3 3 3 3 4 5 5 6 6 7 8 7 8 9 8 7 6 6 6 6 6 6 5 6 6 7 7 6 6 6 7 8 8 7 7 8 7 7 6 6 6 7 6 5 5 4 4 3 2 2 2 2 2 3 2 2 1 1 2 3 6 9 10 12 12 14 15
6 6 6 6 7 6 6 6 6 7 6 6 5 5 4 4 3 2 2 3 2 3 3 4 5 5 6 7 8 7 8 8 8 8 6 6 6 6 5 6 6 6 6 7 7 5 6 6 7 7 5 7 6 5 6 5 4 5 6 6 6 5 4 3 2 3 2 2 2 2 2 2 1 1 1 1 2 3 3 5 7 7 9 12 14
5 6 5 5 5 5 5 6 6 6 6 6 6 6 5 4 3 2 2 2 1 2 2 3 4 4 5 7 7 7 8 8 8 7 6 5 5 5 5 6 6 6 6 6 6 6 6 6 7 6 7 6 5 5 5 5 6 6 6 6 5 5 4 3 3 1 1 1 2 2 1 1 1 2 2 2 2 2 3 3 3 3 3 9 10
5 4 5 5 5 6 5 5 5 5 5 5 5 6 6 6 6 4 3 2 3 3 2 2 3 4 5 6 6 6 7 7 7 7 6 5 5 5 5 5 5 6 6 6 6 5 5 6 6 6 6 6 6 4 3 4 5 6 6 4 4 4 3 2 2 1 1 1 1 1 1 1 1 2 3 3 3 3 4 4 3 3 3 4 7
6 4 4 5 5 5 4 6 4 2 4 5 5 5 6 7 6 5 6 4 4 4 2 1 3 3 5 5 5 5 6 7 7 7 6 5 4 4 4 5 5 5 5 5 5 4 4 4 4 3 5 5 4 2 2 0 3 4 3 3 3 1 1 1 1 1 1 1 1 0 0 1 2 2 3 3 3 3 3 4 4 4 5 4 5
2 2 4 5 4 4 5 6 4 3 3 4 4 4 4 4 5 6 6 6 5 5 5 4 3 3 3 4 4 5 6 5 6 6 6 6 5 4 4 4 3 4 4 4 4 4 4 2 2 4 3 4 3 2 1 3 2 1 3 4 3 3 2 2 3 2 2 1 1 1 1 1 1 2 2 2 2 2 2 3 3 3 4 4 4
5 4 3 4 4 4 4 4 4 4 4 4 4 5 3 3 3 5 5 6 4 3 3 4 4 3 2 2 3 4 5 5 5 6 5 6 6 5 4 4 3 2 3 3 4 4 3 3 2 2 3 3 3 2 2 3 1 1 0 2 3 4 4 4 3 3 3 2 2 2 2 1 1 1 1 2 2 2 2 2 3 3 3 3 3
4 4 3 4 3 4 4 4 4 4 5 5 5 5 5 4 5 6 5 5 6 5 5 5 4 4 2 1 1 3 3 4 4 5 4 5 5 5 5 4 4 3 2 2 3 3 3 2 2 2 1 4 2 2 2 3 2 2 3 2 1 3 3 4 1 3 3 3 3 3 2 2 2 2 2 2 2 2 2 2 3 3 2 2 3
4 4 3 4 3 5 5 4 5 5 5 5 5 4 4 5 5 5 6 6 6 6 5 4 3 2 2 1 3 2 2 2 3 3 4 4 4 4 4 4 4 4 3 2 2 2 2 2 1 1 0 1 4 2 1 1 1 2 3 2 3 4 1 3 2 4 3 4 5 4 3 3 3 3 3 3 3 3 3 3 3 3 3 3 2
5 4 3 4 5 5 5 5 5 5 5 5 5 4 4 4 4 5 5 4 5 4 4 4 4 4 4 2 2 1 1 2 2 2 2 3 3 3 3 3 3 3 3 3 2 1 2 2 2 2 1 2 1 3 3 2 0 2 2 2 3 4 3 2 2 2 4 2 3 4 4 4 3 3 3 4 4 4 4 4 3 4 3 3 2
5 2 3 5 6 6 5 5 5 4 4 4 4 4 5 5 6 6 6 6 6 5 4 3 4 4 4 4 3 2 2 2 2 2 1 2 2 2 2 3 3 2 3 2 2 2 2 2 2 3 2 1 3 2 2 3 2 1 0 2 2 2 3 3 3 3 4 4 4 4 4 5 4 5 5 6 5 5 4 4 4 4 4 4 4
5 4 5 4 6 6 6 6 5 5 5 4 5 6 6 6 6 6 6 7 7 7 6 5 4 4 5 5 3 2 3 3 3 3 3 2 2 2 1 2 2 2 2 2 2 2 2 1 3 3 3 2 3 3 2 2 3 3 1 1 1 1 0 1 2 4 4 5 3 4 3 4 4 5 6 5 5 5 5 5 5 5 5 5 4
5 4 4 4 5 6 6 6 6 6 5 7 6 7 7 6 6 5 6 6 7 7 5 5 5 4 6 5 5 3 3 4 4 4 4 4 4 3 2 2 2 2 2 2 1 2 3 3 3 2 3 3 3 3 3 2 3 2 3 2 2 2 2 1 0 1 4 4 7 6 3 4 4 6 5 4 4 4 4 5 5 5 5 5 4
4 4 5 4 5 5 6 7 8 5 5 6 6 7 7 6 6 6 7 7 5 5 4 6 5 4 5 6 5 4 3 3 4 5 5 5 5 4 4 4 3 2 2 2 2 2 2 2 2 3 3 4 3 2 3 3 3 2 3 2 3 3 3 3 4 4 4 5 7 6 5 6 7 2 3 3 3 4 5 5 6 6 6 5 5
4 4 4 4 5 5 6 7 8 5 4 5 6 7 6 7 7 7 8 8 7 5 6 6 5 5 5 6 5 5 3 4 3 4 5 5 6 6 5 5 4 3 3 3 3 2 2 2 2 2 3 3 3 3 3 4 4 3 3 4 4 4 4 4 4 4 5 5 5 7 7 6 6 8 4 0 3 5 5 5 5 6 6 6 6
Wind_Direction
354 339 334 335 340 338 337 335 333 335 337 337 337 339 341 339 341 341 339 341 344 343 341 340 338 335 333 331 328 325 325 324 327 324 327 327 323 325 331 327 319 300 275 264 267 262 252 241 234 222 229 202 211 222 209 216 201 204 167 175 174 165 149 183 198 171 128 184 168 162 171 160 167 175 159 149 144 125 99 84 153 158 157 117 115
326 325 325 334 338 338 337 335 334 336 338 338 338 341 339 338 341 337 338 338 342 340 337 337 336 334 333 330 328 326 322 322 322 320 319 322 324 320 320 322 324 318 308 290 270 260 265 262 244 227 228 208 208 213 212 215 203 192 179 158 159 169 143 74 126 115 157 178 195 179 167 175 183 180 171 159 155 137 123 102 355 224 220 114 124
317 324 334 333 332 336 336 336 335 338 339 339 339 340 338 336 336 336 335 334 336 337 336 334 335 334 332 331 329 327 323 322 319 317 312 313 317 321 314 313 321 319 315 294 278 263 255 255 257 245 232 220 208 204 205 209 215 198 184 178 172 175 134 138 135 159 168 184 214 170 180 197 200 163 175 168 156 144 139 132 131 302 132 135 147
329 335 336 332 330 335 337 335 336 339 338 339 339 338 336 335 335 336 336 334 333 335 334 334 334 334 332 332 330 326 323 321 318 315 314 306 308 312 316 311 311 320 318 323 309 273 251 247 242 242 238 229 216 205 212 201 207 210 194 183 183 170 160 158 158 177 178 187 182 167 180 192 196 172 165 171 164 153 157 164 190 245 121 166 164
337 334 332 330 333 334 336 336 337 338 338 338 339 338 338 337 337 338 337 335 332 332 334 335 333 332 333 329 328 327 323 319 317 315 311 308 299 300 308 315 314 315 319 324 315 309 273 258 250 243 238 250 226 214 213 200 192 212 194 189 173 169 176 177 175 174 167 116 114 223 191 202 180 160 178 179 169 152 172 175 181 193 159 164 157
335 333 332 331 334 333 336 334 337 337 337 338 339 340 340 339 339 338 336 333 332 333 335 333 331 329 329 329 326 325 324 321 317 315 313 309 308 302 304 306 310 314 318 315 316 312 287 247 248 245 233 234 241 231 213 204 172 186 183 191 172 181 184 190 184 173 154 138 155 213 194 192 176 167 184 177 167 156 175 177 178 177 167 166 163
333 332 331 332 333 336 332 332 334 336 338 339 340 341 340 340 339 337 336 335 334 335 334 331 331 331 330 328 327 323 323 323 319 316 312 310 306 302 299 299 302 305 310 310 309 308 315 266 249 247 241 236 238 231 216 227 185 176 189 185 184 192 186 188 169 164 150 163 191 201 183 187 184 188 173 174 170 167 178 175 182 172 175 180 173
335 333 331 332 332 333 330 331 335 337 338 340 341 341 341 340 339 338 337 336 335 333 333 334 334 333 331 330 328 327 322 319 319 317 313 308 304 305 303 297 297 302 308 313 312 307 307 320 276 257 252 238 234 231 213 219 202 177 184 182 187 186 187 181 162 160 167 189 188 185 181 181 183 178 168 171 173 173 179 181 180 185 182 166 207
336 339 333 333 331 332 330 332 335 338 339 340 341 341 340 339 338 337 337 336 335 333 332 331 331 330 328 326 325 324 323 317 314 311 310 310 306 305 304 303 295 298 306 314 313 308 310 316 312 263 245 235 228 234 239 213 204 183 182 185 188 187 185 181 157 163 187 201 180 181 175 182 180 176 163 180 169 174 177 179 198 206 150 136 176
341 337 337 331 332 331 331 333 336 338 339 340 341 340 340 339 337 337 337 337 336 334 333 332 332 331 328 328 327 323 321 319 313 308 304 302 302 298 296 297 297 294 300 307 310 308 311 308 310 316 294 247 243 233 224 216 209 189 185 187 186 184 187 180 157 181 194 196 183 171 174 213 179 186 153 176 186 175 184 181 217 245 144 145 185
338 343 338 330 332 327 329 332 335 337 339 341 342 341 339 337 336 337 338 337 335 334 334 333 333 333 330 327 327 325 323 319 314 308 303 300 299 301 297 293 301 298 293 300 305 306 306 303 302 304 309 247 231 225 227 218 221 204 189 193 181 185 179 171 169 192 210 188 185 180 138 285 213 195 151 208 229 197 169 35 123 116 133 162 196
340 341 337 330 319 323 327 330 335 337 340 342 342 341 338 337 335 336 337 336 335 334 332 332 332 333 331 330 328 325 322 320 317 310 303 300 299 301 304 300 295 303 297 292 298 303 304 297 299 300 304 298 232 228 209 222 204 201 192 194 192 178 175 159 186 192 198 189 183 184 169 188 196 178 141 206 190 198 158 188 205 171 174 183 199
322 328 331 323 322 322 323 330 334 338 339 342 341 340 338 337 336 336 336 336 335 334 334 334 332 331 330 330 329 327 324 322 319 315 306 302 302 302 305 302 297 295 299 297 296 295 300 299 299 297 302 310 261 231 216 214 208 209 195 190 191 173 171 163 197 193 188 188 181 192 177 197 196 150 179 196 206 190 176 191 207 208 202 197 205
308 321 320 320 315 307 319 328 334 336 339 340 338 338 337 336 337 336 336 336 337 336 336 335 330 331 331 329 328 330 330 326 324 319 311 304 300 300 303 303 297 293 292 293 292 291 298 301 300 296 300 306 317 237 223 214 205 207 197 191 191 176 167 170 203 192 189 187 187 191 193 194 201 179 206 203 220 206 205 200 210 211 211 205 202
302 305 309 306 313 320 317 323 331 335 337 337 336 336 335 336 337 336 337 337 337 337 336 334 334 333 332 331 330 327 332 329 325 323 315 309 304 302 298 295 293 292 290 288 289 290 294 296 289 289 300 307 308 302 222 218 212 212 200 194 207 174 165 189 199 196 190 190 188 194 197 211 199 195 211 218 223 218 209 212 211 214 214 218 210
279 289 293 298 314 321 325 328 325 328 329 330 332 334 333 335 336 337 338 337 336 337 336 337 336 336 332 330 329 326 329 328 324 321 319 313 305 301 297 294 291 290 288 285 284 285 288 289 286 292 295 299 301 312 233 212 208 196 198 200 211 175 175 203 196 194 193 190 196 197 206 218 214 221 220 223 223 231 231 280 227 213 219 221 221
286 274 283 307 315 321 325 327 323 315 319 322 323 329 331 333 333 337 339 336 336 336 337 337 338 338 334 331 328 326 329 332 326 317 315 314 311 306 297 292 290 289 287 284 284 286 283 283 291 294 294 300 302 299 310 214 209 187 184 197 205 175 182 208 192 193 192 190 201 200 209 216 216 226 226 222 224 226 236 237 234 240 241 240 239
286 278 306 316 313 319 320 318 318 322 324 320 323 322 327 328 330 337 337 336 336 336 335 334 339 339 338 332 330 329 330 330 330 320 314 313 309 304 296 293 291 289 286 284 283 278 279 284 287 293 294 293 297 313 324 229 201 195 185 182 192 170 178 194 202 198 197 188 201 205 216 219 224 220 224 220 223 223 225 234 240 238 238 244 244
348 321 307 304 315 315 319 314 313 319 326 327 327 326 323 322 326 334 335 336 337 335 334 333 334 340 338 332 327 333 330 329 331 328 322 315 309 305 304 299 294 288 285 283 281 277 279 281 285 288 283 283 293 292 303 310 206 196 190 186 179 156 161 182 203 191 191 193 209 211 222 218 221 220 217 221 225 231 228 225 227 231 233 238 241
287 302 318 302 307 313 320 318 321 329 332 330 325 325 320 319 321 327 331 334 335 336 334 329 330 339 339 331 326 329 337 336 335 329 325 319 315 311 304 299 300 293 287 282 281 277 271 276 280 278 277 278 278 283 298 310 213 191 196 183 153 138 148 187 168 165 175 206 219 222 214 217 227 219 217 222 230 234 241 247 246 250 249 242 240
321 315 323 330 314 310 324 323 326 335 336 330 326 324 314 319 326 328 326 332 332 333 333 331 332 335 339 333 330 338 343 340 336 331 324 318 313 310 307 301 296 292 288 285 280 275 274 274 275 275 274 273 273 284 294 283 224 186 175 146 140 136 162 175 169 171 184 198 205 238 104 223 232 225 219 226 232 238 250 258 260 258 261 242 238
321 329 336 337 322 324 322 324 333 340 336 331 325 320 324 324 328 328 329 330 337 333 335 336 336 335 335 337 336 340 340 337 333 327 319 314 312 307 306 300 295 295 289 283 281 279 278 276 276 274 274 273 276 278 258 229 228 166 154 154 144 146 113 118 126 91 98 151 195 35 343 261 243 234 230 233 240 249 255 269 279 271 259 254 241
324 330 331 336 324 311 321 327 331 335 333 330 326 323 328 331 326 331 326 327 335 335 334 337 343 338 332 337 341 343 331 329 326 323 320 314 310 310 304 299 298 298 294 285 281 279 278 278 274 277 277 271 268 251 222 173 157 156 148 152 149 113 103 102 103 127 186 28 306 19 272 253 255 250 243 245 255 270 328 306 286 292 297 278 250
323 323 317 312 314 318 324 321 329 332 331 331 327 329 336 329 331 332 331 332 337 334 334 337 338 335 332 337 339 346 339 332 326 328 327 329 325 315 306 302 300 300 293 286 267 261 268 263 265 263 265 261 246 237 208 162 152 150 150 155 130 139 148 159 149 133 129 115 272 285 252 260 259 259 256 257 263 270 273 278 293 295 300 294 280
310 306 301 323 330 328 322 321 325 325 330 328 331 335 334 327 332 332 331 333 336 336 335 336 339 334 332 335 329 326 333 336 339 329 325 323 313 304 301 303 309 307 304 292 275 253 244 282 277 256 243 243 234 220 188 162 153 155 163 150 144 141 145 154 151 132 143 152 156 21 27 278 267 259 268 272 274 265 257 271 290 297 287 280 288
290 301 322 321 328 324 311 316 313 324 327 328 327 323 321 336 335 335 331 336 335 334 335 335 339 339 334 330 326 339 341 331 332 332 330 309 307 309 308 309 309 317 305 303 293 263 337 316 288 270 262 238 222 205 183 160 155 165 161 155 159 149 140 140 132 145 154 139 95 70 57 82 49 348 317 301 297 287 280 270 286 291 291 286 290
308 301 307 311 311 316 316 308 307 320 323 319 317 318 331 332 328 330 326 340 334 336 341 340 339 337 339 336 333 343 351 338 328 334 332 326 320 315 313 315 324 328 329 307 35 35 341 308 282 283 277 255 228 204 183 161 148 160 154 154 151 144 142 148 143 134 103 82 61 42 56 97 162 207 318 280 295 308 313 298 281 280 285 288 289
285 288 298 312 314 318 317 301 306 315 321 324 314 320 334 327 325 321 328 336 327 340 342 335 333 338 342 340 334 336 345 356 347 336 338 337 345 345 346 327 310 330 359 17 355 323 337 311 297 281 284 250 218 186 167 158 165 165 155 159 156 147 143 119 113 121 113 90 68 32 44 49 56 74 44 26 4 346 328 316 308 304 300 295 290
278 291 303 303 308 307 299 294 297 307 315 320 313 322 328 325 330 331 332 331 335 336 333 332 343 341 344 343 339 334 342 3 354 340 344 355 355 358 0 4 10 342 330 335 339 342 326 302 282 280 198 97 74 68 97 94 100 99 131 134 131 144 135 123 122 127 119 104 72 40 39 41 45 39 29 16 358 346 331 321 316 312 308 302 295
281 291 288 296 303 307 297 298 302 310 311 311 320 324 331 326 334 328 324 328 339 326 326 343 344 345 348 342 336 333 331 350 5 349 357 3 7 7 8 10 13 8 9 11 359 345 332 317 37 75 59 51 49 49 79 84 91 80 99 116 117 114 103 96 92 98 110 109 103 76 48 48 42 41 37 26 13 353 338 323 318 311 306 302 296
287 282 290 297 307 300 301 297 301 297 303 308 319 320 315 325 328 320 328 334 331 325 336 340 347 351 345 341 337 337 334 337 4 7 8 9 19 17 14 13 16 13 14 21 26 18 23 24 27 45 49 53 49 42 57 64 60 54 74 77 88 113 110 105 99 95 93 92 101 81 53 44 50 46 36 29 19 6 349 334 324 320 318 313 304
285 288 298 309 302 300 305 304 302 308 299 306 308 312 320 323 318 320 328 333 324 334 334 343 345 346 342 344 346 343 340 342 352 19 18 21 24 27 25 17 12 13 21 22 31 34 35 39 47 61 70 74 68 60 55 65 65 59 61 69 61 51 62 68 86 88 78 73 57 48 34 19 27 33 32 29 21 11 357 342 333 328 323 322 319
284 285 293 298 292 303 307 309 307 296 295 304 311 311 317 313 318 321 326 324 325 334 341 341 341 340 341 351 347 350 355 351 348 6 31 33 28 30 30 29 21 12 18 21 25 32 35 35 42 51 62 70 70 68 63 64 62 51 54 63 63 63 65 65 66 65 61 64 58 54 43 28 20 23 18 16 16 19 11 354 346 337 339 353 357
284 291 291 285 296 290 287 291 296 295 297 303 308 311 319 314 313 315 317 319 334 335 340 340 335 336 343 353 351 358 360 358 351 352 8 22 39 43 41 34 30 26 22 21 29 30 40 44 46 48 46 53 59 63 74 74 70 67 61 59 65 66 75 74 65 62 58 54 61 62 51 36 25 18 358 358 4 12 10 7 359 352 1 2 7
268 274 275 289 300 293 287 290 287 293 287 291 298 303 308 310 311 321 322 325 324 333 339 340 338 339 344 356 356 358 0 2 357 355 11 16 24 34 40 40 30 38 39 27 21 22 35 43 43 58 60 63 66 62 62 62 60 60 58 53 57 58 59 67 62 61 62 53 57 64 60 47 36 21 0 353 350 9 3 2 360 353 7 4 14
263 274 282 282 286 290 287 287 292 293 292 287 295 301 300 302 308 306 315 318 319 333 342 341 336 337 345 351 358 358 2 0 359 359 22 16 19 30 31 33 30 37 48 42 46 41 31 40 34 39 71 69 72 69 70 73 70 67 63 60 55 58 64 69 67 60 57 64 70 69 61 46 40 20 352 2 338 342 1 1 354 353 5 357 3
272 272 275 284 283 287 287 286 296 302 303 301 296 297 299 298 300 303 293 300 319 333 343 338 334 342 348 354 353 354 6 3 359 358 18 25 24 29 27 24 35 51 55 53 54 35 33 42 45 48 64 77 71 76 75 75 77 71 69 71 65 64 73 70 81 81 73 62 48 56 73 56 38 13 351 342 311 335 0 344 346 353 357 0 1
264 260 265 270 279 290 292 293 296 295 298 306 308 306 300 297 290 291 298 297 304 323 335 334 342 345 351 355 347 351 3 5 2 359 15 21 32 27 25 25 37 48 58 64 64 57 53 53 57 42 44 70 72 68 78 74 65 55 57 57 58 64 65 60 64 72 53 58 43 36 39 40 17 343 333 305 352 10 340 322 331 332 0 1 0
251 251 253 257 261 266 274 284 288 293 295 305 309 302 289 273 259 259 277 256 306 332 327 333 343 344 357 343 350 352 0 359 3 3 7 19 33 28 29 22 39 52 57 63 64 60 63 66 78 74 57 53 67 62 65 77 78 76 71 52 51 50 47 47 48 52 75 66 69 58 26 10 335 330 337 332 13 353 326 324 331 337 355 359 5
247 242 245 244 245 256 257 273 275 285 300 295 300 305 309 313 323 316 301 330 339 334 320 332 340 349 349 342 351 353 358 353 359 360 8 13 27 33 31 23 38 51 56 58 60 58 64 76 78 88 93 90 78 76 80 92 88 83 83 75 65 69 66 54 63 68 75 34 41 23 13 344 331 339 348 350 3 347 333 324 321 324 330 344 355
243 239 239 238 239 250 266 267 270 275 287 298 304 314 314 316 316 324 327 330 329 324 307 356 353 352 337 342 343 358 353 353 358 357 2 7 25 29 36 35 35 43 56 59 60 62 56 67 76 69 81 94 84 79 100 70 120 100 108 109 114 94 114 149 140 149 154 166 188 236 13 311 335 343 345 348 348 340 333 327 326 338 339 336 339
222 215 251 265 259 248 244 256 261 255 255 267 283 285 282 293 306 307 318 317 325 327 334 334 343 322 320 332 341 353 348 352 355 355 0 0 10 24 30 32 36 63 69 75 73 74 72 74 87 85 48 61 71 23 64 249 165 147 156 150 140 154 168 178 188 172 210 191 188 206 201 210 313 331 324 329 322 315 314 312 316 328 331 338 347
273 268 265 267 254 240 235 240 249 251 253 234 242 258 260 255 260 286 303 308 292 278 292 292 292 293 293 308 339 347 346 350 354 351 357 355 358 6 16 20 21 38 92 95 89 85 80 78 80 98 111 84 83 38 28 316 70 121 5 209 156 186 154 194 188 193 186 201 197 206 218 222 210 220 269 278 276 279 284 298 306 306 328 337 332
249 249 222 238 243 250 245 243 245 238 242 233 230 245 245 249 243 255 259 242 273 286 270 259 246 242 266 216 17 352 339 340 350 346 348 359 356 356 356 8 12 2 24 66 70 70 76 86 94 116 166 122 114 94 20 5 341 273 186 295 55 270 193 185 185 147 187 191 210 206 210 231 209 217 220 238 244 252 257 248 272 284 296 308 309
239 243 233 230 223 244 241 240 245 241 237 230 224 233 241 244 233 231 228 238 229 230 234 216 197 216 263 344 354 341 321 320 334 344 339 352 354 355 355 357 360 355 353 19 28 29 23 35 4 69 11 119 138 141 142 3 19 342 329 201 189 213 278 60 281 152 178 191 211 218 215 227 227 220 237 239 235 248 244 247 249 256 263 269 281
253 238 231 244 240 241 233 227 236 239 236 231 224 219 236 252 264 276 275 276 291 290 294 302 308 309 311 300 244 222 281 278 291 315 329 331 350 344 343 342 350 347 353 1 359 350 359 350 345 331 48 335 279 167 159 170 134 357 352 2 354 347 356 93 294 173 165 203 158 209 214 220 238 239 237 243 237 241 237 246 244 253 257 262 264
271 280 263 257 248 246 236 229 230 229 228 235 215 221 229 233 238 251 259 268 273 275 271 263 263 277 285 279 268 206 191 232 245 249 287 294 307 320 325 333 338 338 336 321 345 337 350 342 325 314 338 319 286 228 197 162 194 190 276 344 6 6 358 311 280 329 246 154 193 189 203 209 224 232 242 240 238 235 236 236 241 246 244 241 242
296 298 282 271 265 254 237 228 226 226 214 208 207 216 227 228 229 230 239 244 243 260 267 266 260 272 277 275 273 239 181 196 214 218 215 236 259 267 282 304 315 329 316 335 340 332 326 317 325 326 309 300 299 294 246 205 250 149 184 194 158 135 21 267 325 310 316 300 205 176 186 192 208 234 237 242 238 242 249 238 242 237 237 230 230
282 279 280 286 282 275 269 255 245 235 227 204 204 204 220 228 226 232 240 240 244 254 264 265 270 261 272 274 269 269 223 194 202 208 207 211 216 230 237 258 284 301 303 306 331 324 319 321 301 295 304 311 300 316 293 262 265 242 192 191 215 204 199 191 215 244 271 273 271 269 245 169 211 224 226 224 245 245 243 250 243 242 245 244 237
268 263 266 262 261 266 265 264 254 236 228 212 211 207 204 213 223 230 238 251 245 253 251 263 266 263 268 274 268 263 249 220 199 203 207 207 207 209 213 222 233 235 261 274 284 269 273 278 302 307 313 299 301 290 300 307 282 296 280 273 230 208 221 223 205 211 223 233 267 279 290 300 292 268 177 221 235 248 246 246 244 236 240 242 238
270 266 264 257 265 261 267 272 268 260 233 227 215 217 204 203 217 225 230 244 250 253 265 263 256 253 260 266 265 266 257 254 230 216 209 205 205 206 210 211 213 224 224 226 234 247 251 258 260 263 267 281 293 303 290 290 297 287 276 264 264 258 264 248 235 208 225 240 239 252 264 263 276 288 280 192 257 252 245 243 242 241 234 234 232